Temperature
17 17 17 17 18 17 17 17 17 17 17 17 17 17 17 17 17 17 17 18 17 17 17 17 17 17 17 17 17 17 17 17 17 17 17 16 16 16 16 16 16 16 16
17 17 17 17 17 17 17 17 17 17 17 17 17 17 17 17 17 17 17 17 18 18 17 17 17 17 17 17 17 17 17 17 17 17 16 16 16 16 16 16 16 16 15
18 17 18 17 18 17 17 17 17 18 18 18 17 17 17 17 17 17 17 17 17 17 17 17 17 17 17 17 17 17 17 17 17 17 16 16 16 16 16 16 16 15 15
18 18 18 18 18 17 17 18 17 18 18 18 17 17 17 17 17 17 17 17 17 17 17 17 17 17 17 17 17 17 17 17 17 16 16 16 16 16 16 16 15 15 15
17 17 18 18 17 17 17 18 17 17 17 17 18 17 17 17 17 17 17 17 17 17 17 17 17 17 17 17 17 17 17 17 16 16 16 16 16 16 16 15 15 15 15
17 17 17 18 17 17 17 17 17 17 17 17 18 18 17 17 17 17 17 17 17 17 17 17 17 17 17 17 17 17 17 16 16 16 16 16 16 16 16 16 15 15 15
17 17 17 17 17 17 17 17 17 17 17 17 18 18 18 17 17 17 17 17 17 17 17 17 16 16 16 16 16 17 16 16 16 16 16 16 16 16 16 15 15 15 15
18 18 17 17 17 17 17 17 17 17 17 17 17 18 19 18 18 17 17 17 17 17 17 17 16 16 16 16 16 16 16 16 16 16 16 16 16 16 15 15 15 15 15
18 18 18 17 17 17 17 17 17 17 17 17 17 17 18 19 18 18 17 17 17 16 16 16 16 16 16 16 16 16 16 16 16 16 16 16 16 16 15 15 15 15 15
18 18 18 18 17 17 17 17 17 17 17 17 17 17 17 17 18 18 18 17 17 17 16 16 16 16 16 15 16 16 16 16 16 16 16 16 15 15 15 15 15 15 15
18 18 18 18 18 17 17 17 17 17 17 17 17 17 17 17 17 17 18 17 17 17 16 16 16 16 16 16 15 16 16 16 15 15 15 15 15 15 15 15 15 15 14
18 18 18 18 18 17 17 17 17 17 17 17 17 17 17 17 17 17 17 17 17 17 16 16 16 16 16 15 15 15 15 15 15 15 15 15 15 15 15 15 14 14 14
18 18 18 18 18 18 17 17 17 17 17 17 17 17 17 17 17 17 17 17 17 17 16 16 16 16 16 15 15 15 15 15 15 15 15 15 15 15 15 14 14 14 14
18 18 18 18 18 18 17 17 17 17 17 17 17 17 17 17 17 16 17 17 17 17 17 16 16 16 16 15 15 15 15 15 15 15 15 15 15 14 14 14 14 14 14
18 18 18 18 18 18 18 17 17 17 17 17 17 17 17 17 17 16 16 16 17 17 17 16 16 16 15 15 15 15 15 15 15 15 15 15 15 14 14 14 14 14 14
18 18 18 18 18 18 17 17 17 17 17 17 17 17 17 17 17 16 16 16 16 16 16 16 15 15 15 15 15 15 15 15 15 15 15 15 14 14 14 14 14 14 14
18 18 18 18 18 18 17 17 17 17 17 17 16 16 16 16 16 16 16 16 16 16 16 16 15 15 15 15 15 15 14 14 14 14 14 14 14 14 14 14 14 13 13
18 18 18 18 18 17 17 17 17 17 16 16 16 16 16 16 16 16 16 16 16 16 15 15 15 15 15 14 14 14 14 14 14 14 14 14 14 14 14 14 13 13 13
18 18 18 18 17 17 17 17 17 17 16 16 16 16 16 16 16 16 16 15 15 15 15 15 15 14 14 14 14 14 14 14 14 14 14 14 14 14 14 13 13 13 13
18 18 18 18 17 17 17 17 17 16 16 16 16 16 16 15 15 15 15 15 15 15 15 14 14 14 14 14 14 13 13 13 13 13 13 13 13 13 13 13 13 13 13
18 18 18 17 17 17 17 16 16 16 16 16 16 16 15 16 16 15 15 15 15 15 14 14 14 14 14 13 13 13 13 13 13 13 13 13 13 13 13 13 13 13 13
18 18 18 17 17 17 17 17 16 16 16 16 16 16 15 16 16 15 15 15 15 14 14 14 14 14 13 13 13 13 13 13 13 13 12 13 12 12 12 12 13 13 12
18 18 17 17 17 17 17 17 17 16 16 15 15 15 15 15 15 15 15 15 14 14 14 14 13 13 13 13 13 12 12 12 12 12 12 12 12 12 12 12 12 12 12
17 17 17 17 17 17 17 17 16 16 15 15 15 15 15 15 14 14 14 14 14 14 14 13 13 13 13 13 13 12 12 12 12 12 12 12 12 12 12 12 12 12 12
17 17 17 16 16 16 16 16 16 15 15 15 15 15 15 14 14 14 14 14 13 13 13 13 13 13 13 13 12 12 12 12 12 12 12 11 12 12 12 12 12 12 12
17 16 16 16 16 16 16 16 16 15 15 15 14 14 15 14 14 14 14 13 13 13 13 13 13 13 13 13 12 12 12 11 11 12 12 11 11 11 11 11 11 11 11
Wind_Speed
4 4 4 3 3 3 3 2 2 3 2 2 1 1 0 0 0 1 3 6 5 4 4 4 4 5 6 6 7 7 7 8 7 8 9 10 10 11 11 11 12 13 13
3 3 3 3 3 3 3 2 2 1 1 1 1 1 0 0 1 0 1 4 6 5 4 4 4 5 5 5 6 6 7 7 8 8 9 9 10 11 11 12 12 13 13
3 2 2 2 3 3 2 2 2 1 1 1 1 1 0 0 0 0 1 1 3 6 5 3 3 4 5 5 5 6 6 7 8 8 9 9 9 10 11 11 12 12 13
2 1 2 2 2 2 1 1 1 1 2 1 1 1 0 1 1 1 1 1 1 1 5 5 4 4 4 5 5 5 5 6 6 7 8 8 9 9 10 11 11 12 12
1 0 1 2 0 0 1 1 2 2 2 2 1 0 0 0 0 1 1 1 1 2 2 5 6 6 5 4 4 4 4 5 5 6 7 8 8 8 9 10 10 11 11
0 1 1 1 1 0 1 1 1 1 1 1 1 1 0 0 1 0 1 1 1 2 2 2 3 6 7 6 5 4 4 5 5 6 6 7 7 8 8 9 10 11 11
1 1 1 1 1 0 0 0 1 0 0 1 1 1 1 2 1 1 1 2 1 1 2 2 2 2 3 8 7 5 5 5 5 5 6 6 6 7 7 8 9 10 11
2 2 1 2 1 1 1 1 1 2 1 1 2 2 1 2 2 1 1 1 2 1 2 2 1 2 3 2 3 5 4 4 5 5 5 5 5 5 7 8 8 9 10
2 2 2 2 1 2 1 2 2 2 2 2 2 3 3 2 2 1 1 1 2 2 2 2 2 2 3 3 2 3 3 3 4 4 4 4 5 6 7 8 8 8 9
2 2 2 2 2 2 1 3 1 3 3 3 1 2 3 3 3 2 1 1 1 2 2 3 2 2 3 3 1 0 2 3 3 3 3 3 4 5 7 8 8 8 8
2 2 3 3 3 2 2 3 3 4 3 4 3 2 2 2 4 4 3 3 2 1 2 2 2 2 2 2 2 1 2 2 3 3 3 3 4 5 6 7 7 8 8
2 3 3 3 3 3 2 3 3 4 4 4 4 3 3 3 3 3 4 4 3 2 2 2 2 2 2 2 1 2 2 2 2 2 3 3 3 5 6 6 7 7 7
2 2 3 3 3 3 3 3 3 4 4 4 4 4 4 4 4 4 4 4 4 3 2 2 2 2 2 1 0 2 3 3 3 3 2 2 3 3 5 6 6 6 6
2 1 2 3 3 3 3 3 4 3 3 3 4 4 4 4 3 4 4 4 4 4 2 2 2 2 2 1 1 2 2 5 5 4 3 3 3 3 4 4 4 5 6
3 3 3 3 3 3 3 3 3 3 2 3 3 3 3 3 3 3 4 4 4 5 4 2 1 2 2 1 1 1 1 5 5 5 4 3 3 4 4 4 5 5 6
3 3 3 3 3 3 3 3 3 2 2 3 2 3 4 3 2 3 4 4 4 5 4 2 1 2 2 2 2 1 2 5 5 5 4 4 4 4 5 5 5 6 6
4 4 3 3 3 3 3 3 3 3 3 3 3 3 3 4 3 3 3 3 4 4 4 3 1 1 1 2 1 1 1 2 3 6 5 5 5 5 5 6 6 6 6
5 4 4 4 4 3 3 3 3 3 3 3 3 3 3 3 3 3 3 3 3 3 4 3 2 2 2 2 1 2 2 2 1 5 6 6 6 6 6 6 6 6 7
5 4 4 4 4 3 3 3 3 3 3 3 3 3 3 3 3 3 3 3 3 3 3 3 3 2 2 2 2 2 2 2 2 3 6 6 7 7 6 6 6 7 7
5 5 4 4 4 4 3 3 3 3 3 3 3 3 3 3 3 3 3 3 3 3 3 3 3 2 2 2 2 2 2 2 3 3 2 4 6 8 8 8 7 8 8
5 4 4 4 3 4 3 3 3 4 3 3 3 3 3 2 2 3 3 3 3 3 3 4 3 3 2 2 3 3 3 3 2 3 3 3 4 5 6 8 9 9 9
5 4 4 4 4 2 1 1 3 3 4 4 4 4 3 2 2 3 2 3 3 4 4 4 4 4 4 4 3 4 4 3 3 3 4 4 4 4 4 5 6 9 10
4 4 4 4 3 2 2 2 3 4 4 4 4 4 4 2 2 2 3 5 4 4 5 5 5 6 5 4 4 4 3 4 4 3 4 4 3 4 4 3 8 9 9
4 4 4 4 3 3 3 3 3 4 4 4 4 4 4 3 2 3 3 3 4 3 4 5 5 6 5 4 5 5 4 4 4 4 4 5 4 4 3 2 7 9 9
4 4 4 4 4 3 3 3 4 4 4 4 4 4 4 4 1 2 4 4 4 4 3 3 4 5 4 4 4 4 4 4 4 4 3 4 5 4 4 3 4 9 10
4 4 4 4 4 4 4 3 4 4 4 4 4 4 3 3 2 3 5 5 5 5 4 4 4 5 5 5 5 5 4 4 4 4 3 3 5 4 4 3 3 4 6
Wind_Direction
70 72 65 62 70 83 101 88 86 92 99 116 130 119 139 131 115 156 133 143 166 189 209 226 237 237 231 223 216 212 215 220 225 225 225 222 219 220 219 219 217 215 212
70 67 77 61 60 63 63 69 86 100 99 94 109 96 299 13 99 209 174 152 169 186 211 232 245 238 233 222 211 210 214 219 229 229 229 224 224 222 221 220 219 218 216
72 63 69 65 58 66 83 90 76 87 111 120 96 80 140 9 67 175 247 247 183 179 193 218 236 229 224 223 222 220 217 218 224 227 227 225 226 223 221 220 220 216 214
65 49 59 56 54 70 84 88 65 51 54 36 46 14 122 154 202 216 222 232 266 224 186 188 214 215 223 229 234 230 226 223 225 226 224 223 225 224 221 220 218 215 210
61 56 62 55 49 75 65 36 68 28 38 17 5 71 4 68 215 221 233 232 229 261 261 177 199 205 214 227 232 230 228 226 229 230 227 223 226 224 219 216 212 208 205
73 298 151 126 243 142 59 39 38 27 345 333 333 15 326 258 270 217 252 241 240 257 267 272 223 197 198 207 217 230 235 231 232 231 228 224 225 222 216 213 208 206 204
217 245 287 151 249 201 274 269 300 256 290 315 283 267 215 210 238 258 267 295 292 287 280 271 269 266 200 190 197 216 232 232 233 231 230 225 227 219 212 208 205 200 200
245 223 227 253 229 214 219 245 259 295 299 277 304 297 276 196 186 215 257 270 296 291 279 259 279 262 267 250 156 188 217 231 232 235 232 224 221 218 212 207 200 198 200
247 264 242 259 259 252 232 252 255 273 296 289 302 305 308 336 326 184 222 269 287 292 285 289 261 266 266 262 247 182 191 228 233 231 226 219 218 215 207 203 202 199 200
256 247 244 246 263 279 264 256 251 269 272 286 263 266 294 306 295 294 246 269 277 280 304 299 294 271 267 266 254 199 185 223 229 226 221 222 216 206 198 197 195 195 198
238 234 233 233 244 259 273 287 273 267 267 275 283 276 268 252 260 278 293 301 294 298 303 292 291 294 286 271 259 117 154 227 227 218 211 210 207 202 195 193 192 192 191
222 220 231 234 242 258 257 266 270 261 267 278 282 282 278 280 279 281 285 288 300 305 314 311 296 298 298 284 293 93 160 199 200 199 201 193 191 196 197 191 186 185 185
227 218 243 241 250 251 258 268 262 277 268 268 268 275 283 283 285 280 281 290 296 297 293 281 310 316 321 320 37 145 151 163 170 172 180 180 178 180 189 194 191 191 192
254 238 239 241 248 250 252 252 264 263 264 266 268 274 275 275 280 277 275 282 288 286 282 305 323 332 327 309 65 184 157 160 176 170 168 179 174 165 165 170 177 182 190
243 225 233 235 240 243 253 258 268 282 278 269 266 255 264 274 266 274 275 273 281 292 302 295 292 336 323 1 68 182 148 139 157 163 166 167 167 166 167 176 184 186 186
240 236 231 229 232 237 238 247 252 251 261 270 280 292 282 271 271 263 270 275 278 283 292 314 317 330 344 341 103 161 163 148 158 169 176 176 178 182 180 184 189 192 192
222 223 226 227 228 233 240 244 258 254 255 267 273 274 279 289 279 273 269 270 273 272 273 292 319 345 317 308 345 294 209 200 173 171 182 191 197 198 196 199 200 203 204
215 213 217 223 229 231 233 242 254 258 256 264 273 276 279 278 276 275 273 267 268 265 262 272 282 279 279 275 284 282 272 246 205 157 175 193 198 200 202 207 208 208 205
212 212 213 226 236 240 235 241 252 259 260 261 264 269 274 276 275 277 276 275 274 268 262 262 271 280 277 272 263 262 275 290 269 177 179 194 200 198 198 203 207 207 207
206 206 211 223 233 240 241 242 242 252 260 260 263 267 268 267 270 272 265 270 272 269 259 256 258 256 261 263 262 265 273 269 281 263 212 203 198 200 201 204 208 208 208
206 204 209 217 227 231 240 242 238 240 246 250 252 255 262 281 308 288 287 283 277 267 259 256 260 262 265 275 268 266 271 273 272 268 262 241 216 221 213 209 212 210 205
205 205 210 217 225 239 75 287 263 248 248 246 249 254 246 231 235 213 243 279 286 272 271 267 265 266 261 262 268 268 267 267 267 259 261 260 250 248 235 228 197 193 199
199 204 213 217 218 213 168 200 259 248 245 252 256 261 266 250 236 243 222 224 238 248 263 269 270 269 266 262 265 267 270 273 275 280 268 272 263 261 248 206 170 183 193
200 206 211 215 220 211 162 185 234 236 248 253 257 262 264 262 265 270 258 259 261 256 258 260 270 275 276 270 255 255 259 266 269 271 256 271 275 273 271 209 167 183 194
202 210 213 216 219 209 164 192 236 235 239 249 255 256 257 254 261 280 261 263 265 263 241 243 266 274 284 273 260 254 249 252 271 277 263 271 280 283 272 251 194 188 200
206 214 214 219 217 218 184 193 239 243 244 248 248 244 241 247 247 253 254 261 266 272 277 263 243 244 245 237 225 236 246 250 262 272 274 267 274 279 269 256 246 213 215
Height
1550 1550 1549 1549 1550 1551 1551 1551 1552 1551 1552 1552 1552 1553 1553 1553 1553 1553 1553 1552 1552 1552 1552 1551 1551 1551 1551 1551 1551 1551 1552 1552 1552 1552 1552 1552 1552 1553 1554 1555 1555 1556 1557
1551 1551 1551 1550 1551 1551 1552 1551 1552 1552 1552 1552 1552 1552 1552 1553 1552 1552 1552 1552 1551 1551 1551 1550 1550 1549 1549 1549 1549 1549 1550 1550 1550 1550 1550 1550 1550 1550 1551 1551 1552 1553 1555
1551 1551 1552 1552 1552 1552 1552 1552 1552 1552 1552 1552 1552 1551 1551 1551 1551 1551 1551 1551 1551 1550 1549 1549 1548 1547 1547 1547 1547 1547 1547 1547 1547 1547 1547 1548 1548 1548 1548 1549 1549 1550 1551
1552 1552 1553 1553 1552 1553 1553 1553 1553 1553 1552 1552 1552 1551 1551 1550 1550 1550 1550 1550 1550 1549 1548 1547 1547 1546 1546 1546 1546 1545 1545 1545 1545 1545 1545 1545 1545 1545 1545 1546 1546 1547 1548
1553 1553 1553 1553 1553 1554 1553 1553 1553 1553 1552 1551 1551 1551 1550 1550 1549 1549 1549 1549 1548 1547 1547 1546 1545 1545 1544 1544 1544 1543 1543 1543 1542 1542 1542 1542 1542 1542 1543 1543 1543 1544 1544
1553 1553 1554 1553 1553 1554 1553 1553 1552 1551 1551 1551 1551 1550 1549 1549 1548 1548 1548 1548 1547 1546 1546 1545 1544 1543 1542 1542 1541 1541 1541 1540 1540 1539 1539 1539 1539 1539 1539 1539 1540 1540 1541
1553 1553 1554 1553 1553 1553 1553 1553 1552 1552 1551 1550 1550 1549 1549 1548 1547 1547 1547 1546 1546 1545 1544 1543 1543 1542 1541 1540 1539 1538 1538 1537 1537 1537 1536 1536 1536 1536 1536 1536 1537 1538 1538
1552 1553 1552 1553 1553 1552 1552 1552 1551 1551 1551 1550 1550 1549 1548 1548 1546 1546 1545 1545 1544 1544 1543 1542 1541 1539 1539 1539 1537 1536 1535 1535 1534 1534 1534 1533 1533 1533 1533 1534 1534 1535 1536
1552 1552 1552 1552 1552 1552 1552 1551 1550 1550 1550 1549 1548 1549 1548 1546 1546 1545 1544 1544 1543 1542 1541 1540 1539 1538 1537 1536 1535 1533 1532 1532 1532 1531 1531 1530 1530 1530 1530 1531 1531 1532 1533
1551 1551 1551 1551 1550 1551 1550 1550 1550 1549 1548 1549 1548 1547 1547 1546 1545 1544 1544 1543 1541 1540 1539 1539 1538 1536 1535 1534 1532 1531 1530 1530 1529 1528 1528 1528 1527 1527 1528 1529 1529 1530 1531
1550 1550 1550 1550 1549 1550 1549 1548 1548 1547 1547 1547 1547 1546 1545 1544 1544 1543 1542 1541 1540 1539 1538 1536 1535 1534 1533 1531 1530 1529 1528 1527 1526 1526 1526 1525 1525 1525 1526 1527 1527 1528 1528
1549 1549 1548 1548 1548 1548 1547 1547 1546 1546 1545 1545 1545 1544 1544 1543 1542 1541 1540 1539 1538 1537 1536 1534 1533 1532 1530 1529 1528 1526 1525 1525 1524 1524 1523 1523 1523 1523 1524 1525 1525 1526 1526
1548 1547 1547 1546 1546 1546 1546 1545 1544 1544 1543 1543 1542 1542 1542 1541 1540 1540 1538 1537 1536 1535 1533 1532 1531 1530 1528 1527 1525 1524 1523 1523 1522 1522 1522 1522 1522 1522 1522 1523 1523 1524 1524
1546 1546 1545 1545 1545 1544 1544 1544 1543 1542 1541 1540 1540 1539 1539 1539 1538 1537 1537 1536 1534 1533 1532 1531 1529 1528 1526 1525 1523 1522 1521 1521 1520 1520 1520 1520 1520 1520 1520 1521 1521 1522 1522
1544 1544 1543 1543 1543 1542 1542 1541 1541 1540 1540 1539 1538 1537 1537 1536 1536 1535 1534 1534 1533 1531 1530 1529 1528 1526 1524 1523 1521 1520 1520 1519 1519 1518 1518 1518 1518 1518 1519 1519 1519 1519 1520
1542 1541 1541 1541 1541 1540 1540 1539 1539 1538 1537 1537 1536 1535 1534 1534 1533 1533 1532 1531 1531 1530 1528 1527 1525 1524 1523 1522 1520 1519 1518 1517 1517 1517 1517 1516 1516 1517 1517 1517 1517 1517 1517
1539 1539 1539 1539 1538 1538 1538 1537 1537 1536 1535 1535 1534 1533 1532 1531 1531 1530 1530 1529 1528 1527 1526 1525 1524 1523 1521 1520 1519 1518 1517 1516 1516 1515 1515 1515 1515 1514 1514 1515 1515 1515 1515
1537 1537 1537 1536 1536 1536 1535 1535 1535 1534 1533 1533 1532 1531 1530 1529 1528 1528 1527 1526 1526 1525 1524 1523 1522 1521 1520 1519 1517 1516 1516 1516 1515 1514 1513 1513 1512 1512 1512 1512 1512 1512 1512
1534 1534 1534 1534 1534 1534 1533 1533 1532 1532 1531 1530 1530 1529 1528 1527 1526 1525 1524 1524 1524 1523 1521 1521 1520 1519 1518 1517 1515 1515 1514 1513 1513 1512 1511 1510 1510 1509 1509 1509 1509 1509 1509
1532 1532 1532 1532 1532 1531 1531 1530 1530 1529 1529 1528 1527 1526 1525 1525 1524 1523 1522 1521 1521 1520 1519 1518 1517 1516 1515 1514 1513 1513 1512 1511 1511 1510 1509 1508 1507 1507 1506 1506 1506 1506 1506
1529 1529 1529 1529 1529 1529 1528 1528 1527 1526 1526 1525 1524 1524 1523 1522 1521 1520 1520 1519 1518 1518 1517 1516 1515 1514 1513 1512 1511 1510 1510 1509 1508 1508 1507 1506 1505 1504 1503 1503 1503 1503 1503
1526 1526 1526 1526 1526 1526 1525 1525 1524 1524 1523 1522 1522 1521 1520 1519 1518 1517 1517 1516 1516 1515 1514 1514 1513 1512 1510 1510 1509 1508 1507 1506 1506 1505 1504 1503 1503 1502 1501 1500 1499 1499 1500
1522 1522 1523 1523 1523 1522 1522 1522 1521 1521 1520 1520 1519 1518 1518 1517 1516 1515 1514 1514 1513 1512 1511 1511 1510 1508 1507 1507 1506 1505 1504 1503 1503 1502 1501 1500 1500 1499 1498 1497 1496 1496 1497
1519 1519 1519 1520 1520 1519 1519 1519 1519 1518 1518 1517 1516 1516 1515 1514 1514 1513 1512 1511 1511 1509 1509 1508 1507 1506 1505 1503 1502 1502 1501 1500 1499 1499 1499 1498 1497 1497 1496 1495 1494 1493 1493
1516 1516 1517 1517 1517 1516 1516 1516 1515 1515 1515 1514 1514 1513 1512 1512 1511 1510 1510 1509 1508 1507 1506 1505 1503 1502 1501 1500 1499 1498 1498 1498 1497 1497 1496 1496 1495 1494 1493 1492 1491 1491 1490
1513 1514 1514 1514 1514 1513 1513 1513 1512 1513 1512 1511 1511 1510 1509 1509 1508 1507 1506 1506 1505 1504 1503 1502 1500 1499 1498 1497 1496 1495 1495 1495 1494 1494 1493 1493 1493 1493 1491 1490 1489 1488 1487